Location: Newark
(52.4787°S, 179.0532°W)
Time: 23:05:41
(UTC+00:00)

Transit 2A Rocket - Pass Details

Date: 27 November 2019
Orbit: 594 x 909 km, 66.7° (Epoch: 05 December)

Event Time Altitude Azimuth Distance (km) Brightness Sun altitude
Rises 03:04:17 0° 221° (SW) 3,573 8.7 40.5°
Reaches altitude 10° 03:06:53 10° 217° (SW) 2,628 8.1 40.1°
Maximum altitude 03:12:59 59° 137° (SE) 1,043 5.9 39.2°
Drops below altitude 10° 03:18:49 10° 57° (ENE) 2,514 7.5 38.4°
Sets 03:21:16 0° 53° (NE) 3,407 8.1 38.0°
